Location: Roanoke
(37.2710°N, 79.9420°W)
Time: 07:48:40
(UTC-05:00)

Transit 2A - Pass Details

Date: 26 November 2019
Orbit: 602 x 957 km, 66.7° (Epoch: 12 December)

Event Time Altitude Azimuth Distance (km) Brightness Sun altitude
Rises 18:22:57 0° 349° (N) 2,858 8.9 -15.6°
Reaches altitude 10° 18:26:00 10° 12° (NNE) 1,964 7.9 -16.2°
Enters shadow 18:26:38 12° 19° (NNE) 1,831 7.7 -16.3°
Maximum altitude 18:28:42 16° 50° (NE) 1,636 - -16.7°
Drops below altitude 10° 18:31:28 10° 88° (E) 2,018 - -17.2°
Sets 18:34:38 0° 111° (ESE) 2,978 - -17.8°
